Find Starlink 32363

NORAD ID: 61678 Int'l Des: 2024-193 Owner: SPXS Country: US Constellation: starlink operational
LEOCIRCULAR

当前视图

正在加载3D地球...

About Starlink 32363

Starlink 32363 (NORAD 61678) is a starlink constellation satellite (v2 mini) launched Oct 26, 2024 by SPXS of US. It operates in LEO, CIRCULAR orbit with a mass of 730.00 kg.

即将过境

Passes for default location (London). Set your location on the main map for personalized predictions.

高度历史

Loading altitude history...

两行轨道根数

1 61678U 24193T 26263.26535124 .00001588 00000-0 58155-4 0 9994
2 61678 53.1590 262.5023 0001694 61.0081 299.1091 15.34385333106386
Epoch: Sep 20, 2026 • Age: 30 hours

当前状态

高度 467.5 km
远地点 / 近地点 N/A
速度 7.64 km/s
星下点 48.99°N, 170.94°W
发射日期 Oct 26, 2024
运行时间 1.9 years
类型 internet

技术详情

分类 Payload
质量 730.00 kg
干质量 700.00 kg
长度 0.30 m
跨度 29.00 m
形状 ? Box + pan
制造商 SPXS
平台类型 Starlink V2M
阶段状态 In Orbit
所有者/国家 SPXS/US

Most Searched